{"data":{"norad_id":32260,"intl_designator":"2007-047A","name":"GPS BIIRM-4 (PRN 15)","alt_names":[],"object_type":"PAYLOAD","status":"ACTIVE","operator":null,"country":"US","launch_date":"2007-10-17","launch_site_code":"AFETR","launch_vehicle":null,"mission":null,"orbit_class":"UNKNOWN","rcs_meters":9.2724,"size_class":null,"mass_kg":null,"dimensions":null,"purposes":["earth_obs","nav"],"wikipedia_slug":null,"has_3d_model":false,"image_url":null,"decayed_at":null,"tle_current":{"epoch":"2026-05-24T18:58:37.598016Z","epoch_age_seconds":96351,"freshness":"FRESH","line1":"1 32260U 07047A   26144.79071294 -.00000031  00000+0  00000+0 0  9990","line2":"2 32260  54.0788  81.0295 0165818  86.9308 274.9410  2.00556397136346","mean_motion":2.00556397,"eccentricity":0.0165818,"inclination_deg":54.0788,"raan_deg":81.0295,"arg_perigee_deg":86.9308,"mean_anomaly_deg":274.941,"bstar":0,"rev_number":13634,"period_min":718.00252773787,"perigee_km":19742.418185311,"apogee_km":20623.276037997,"semimajor_km":26560.984111654,"source":"CELESTRAK","updated_at":"2026-05-25T13:38:23.729852Z"}}}